sat.trackr.live / text

‹ back to catalog

STARLINK-34599

NORAD 64919 · 2025-157R

PAYLOAD ACTIVE UNKNOWN

§ Identity

Operator
Country
US
Launch date
2025-07-26
Launch site
AFETR
Launch vehicle
Mass (kg)
RCS (m²)

Purposes: comms

External: N2YO · Heavens-Above · Gunter

§ Orbital elements

Epoch: 2026-09-19T05:30:13.494240Z

Period
93.85 min
Inclination
53.1567°
Eccentricity
0.0001262
Mean motion
15.34411239 rev/d
Perigee alt
461.8 km
Apogee alt
463.5 km
Semi-major
6,840.8 km
B*
6.0291e-4
RAAN
163.9855°
Arg perigee
90.6841°
Mean anomaly
269.4306°
Rev number
6,579

§ Raw data

STARLINK-345991 64919U 25157R   26262.22932285  .00020056  00000+0  60291-3 0  99932 64919  53.1567 163.9855 0001262  90.6841 269.4306 15.34411239 65794

JSON: /api/v1/satellites/64919 · /tle

For live sub-satellite position, see the globe view (requires WebGL).

§ Visibility from observer

Set your observer location to see the next 7 days of passes ≥ 10°. The values pass through the URL so the page stays shareable.

No JS? Fill the form by hand. The geolocation button needs JavaScript.